{"data":{"norad_id":89213,"intl_designator":"","name":"UNKNOWN","alt_names":[],"object_type":"UNKNOWN","status":"UNKNOWN","operator":null,"country":null,"launch_date":null,"launch_site_code":null,"launch_vehicle":null,"mission":null,"orbit_class":"UNKNOWN","rcs_meters":null,"size_class":null,"mass_kg":null,"dimensions":null,"purposes":[],"wikipedia_slug":null,"has_3d_model":false,"image_url":null,"decayed_at":null,"tle_current":{"epoch":"2026-05-23T09:24:49.586976Z","epoch_age_seconds":217464,"freshness":"STALE","line1":"1 89213U          26143.39224059  .00000225  00000+0  16818-3 0  9998","line2":"2 89213  98.7604  12.9207 0228486  42.7695 319.0996 13.91768385475153","mean_motion":13.91768385,"eccentricity":0.0228486,"inclination_deg":98.7604,"raan_deg":12.9207,"arg_perigee_deg":42.7695,"mean_anomaly_deg":319.0996,"bstar":0.00016818,"rev_number":47515,"period_min":103.46549149412,"perigee_km":755.63221381595,"apogee_km":1089.2481493993,"semimajor_km":7300.5771816076,"source":"CELESTRAK","updated_at":"2026-05-25T13:38:11.779373Z"}}}